| time (UTC) | temp F | wind direction | speed MPH | gust MPH | rain 1hr in | rain 24hr in | rain mn in | humidity % | barometer mb |
| 20260902053002 | 61 | 41 | 4.0 | 8.0 | 0.00 | 0.00 | 0.00 | 94 | 1019.5 |
| 20260902052004 | 61 | 37 | 5.0 | 9.0 | 0.00 | 0.00 | 0.00 | 94 | 1019.5 |
| 20260902051003 | 62 | 33 | 6.0 | 8.0 | 0.00 | 0.00 | 0.00 | 94 | 1019.4 |
| 20260902050004 | 62 | 36 | 5.0 | 6.0 | 0.00 | 0.00 | 0.00 | 94 | 1019.3 |
| 20260902045003 | 62 | 27 | 3.0 | 5.0 | 0.00 | 0.00 | 0.00 | 94 | 1019.3 |
| 20260902044002 | 62 | 34 | 3.0 | 5.0 | 0.00 | 0.00 | 0.00 | 94 | 1019.4 |
| 20260902043003 | 61 | 38 | 5.0 | 7.0 | 0.00 | 0.00 | 0.00 | 94 | 1019.5 |
| 20260902042002 | 61 | 32 | 4.0 | 8.0 | 0.00 | 0.00 | 0.00 | 94 | 1019.3 |
| 20260902041024 | 61 | 14 | 6.0 | 8.0 | 0.00 | 0.00 | 0.00 | 94 | 1019.2 |
| 20260902040002 | 61 | 37 | 6.0 | 8.0 | 0.00 | 0.00 | 0.00 | 94 | 1019.2 |
| 20260902035003 | 61 | 30 | 6.0 | 8.0 | 0.00 | 0.00 | 0.00 | 94 | 1018.9 |
| 20260902034003 | 61 | 40 | 6.0 | 8.0 | 0.00 | 0.00 | 0.00 | 94 | 1018.7 |
| 20260902033003 | 62 | 45 | 6.0 | 9.0 | 0.00 | 0.00 | 0.00 | 94 | 1018.6 |
| 20260902032003 | 62 | 48 | 4.0 | 9.0 | 0.00 | 0.00 | 0.00 | 94 | 1018.6 |
| 20260902031002 | 62 | 58 | 5.0 | 8.0 | 0.00 | 0.00 | 0.00 | 93 | 1018.6 |
| 20260902030003 | 62 | 51 | 4.0 | 6.0 | 0.00 | 0.00 | 0.00 | 93 | 1018.7 |
| 20260902025002 | 62 | 49 | 4.0 | 6.0 | 0.00 | 0.00 | 0.00 | 93 | 1018.7 |
| 20260902024003 | 62 | 38 | 5.0 | 8.0 | 0.00 | 0.00 | 0.00 | 93 | 1018.6 |
| 20260902023003 | 61 | 41 | 6.0 | 8.0 | 0.00 | 0.00 | 0.00 | 93 | 1018.6 |
| 20260902022003 | 62 | 40 | 5.0 | 8.0 | 0.00 | 0.00 | 0.00 | 93 | 1018.5 |
| 20260902021003 | 62 | 29 | 5.0 | 8.0 | 0.00 | 0.00 | 0.00 | 93 | 1018.5 |
| 20260902020024 | 61 | 26 | 4.0 | 8.0 | 0.00 | 0.00 | 0.00 | 93 | 1018.7 |
| 20260902015003 | 62 | 31 | 6.0 | 9.0 | 0.00 | 0.00 | 0.00 | 93 | 1018.7 |
| 20260902014003 | 62 | 49 | 6.0 | 10.0 | 0.00 | 0.00 | 0.00 | 93 | 1018.5 |
| 20260902013002 | 62 | 26 | 7.0 | 10.0 | 0.00 | 0.00 | 0.00 | 93 | 1018.5 |
| 20260902012003 | 62 | 53 | 6.0 | 10.0 | 0.00 | 0.00 | 0.00 | 93 | 1018.5 |
| 20260902011003 | 61 | 18 | 5.0 | 6.0 | 0.00 | 0.00 | 0.00 | 92 | 1018.6 |
| 20260902010003 | 62 | 22 | 5.0 | 7.0 | 0.00 | 0.00 | 0.00 | 92 | 1018.4 |
| 20260902005002 | 62 | 68 | 5.0 | 8.0 | 0.00 | 0.00 | 0.00 | 92 | 1018.4 |
| 20260902004003 | 62 | 83 | 6.0 | 8.0 | 0.00 | 0.00 | 0.00 | 92 | 1018.2 |
| 20260902003003 | 62 | 78 | 6.0 | 8.0 | 0.00 | 0.00 | 0.00 | 92 | 1018.2 |
| 20260902002024 | 62 | 71 | 7.0 | 8.0 | 0.00 | 0.00 | 0.00 | 92 | 1018.1 |
| 20260902001024 | 62 | 46 | 6.0 | 8.0 | 0.00 | 0.00 | 0.00 | 91 | 1018.1 |
| 20260902000002 | 62 | 61 | 6.0 | 10.0 | 0.00 | 0.00 | 0.00 | 91 | 1018.0 |
| 20260901235024 | 62 | 60 | 7.0 | 10.0 | 0.00 | 0.00 | 0.00 | 91 | 1018.2 |
| 20260901234003 | 62 | 58 | 8.0 | 10.0 | 0.00 | 0.00 | 0.00 | 91 | 1018.1 |
| 20260901233002 | 63 | 58 | 8.0 | 10.0 | 0.00 | 0.00 | 0.00 | 90 | 1017.9 |
| 20260901232003 | 63 | 64 | 8.0 | 10.0 | 0.00 | 0.00 | 0.00 | 90 | 1018.1 |
| 20260901231003 | 63 | 66 | 8.0 | 10.0 | 0.00 | 0.00 | 0.00 | 89 | 1018.0 |
| 20260901230003 | 63 | 74 | 8.0 | 10.0 | 0.00 | 0.00 | 0.00 | 89 | 1017.9 |
| 20260901225045 | 63 | 81 | 7.0 | 11.0 | 0.00 | 0.00 | 0.00 | 88 | 1017.8 |
| 20260901224003 | 64 | 80 | 9.0 | 10.0 | 0.00 | 0.00 | 0.00 | 88 | 1017.6 |
| 20260901223003 | 64 | 80 | 9.0 | 12.0 | 0.00 | 0.00 | 0.00 | 87 | 1017.7 |
| 20260901222003 | 65 | 88 | 9.0 | 11.0 | 0.00 | 0.00 | 0.00 | 87 | 1017.6 |
| 20260901221002 | 65 | 90 | 9.0 | 12.0 | 0.00 | 0.00 | 0.00 | 86 | 1017.6 |
| 20260901220003 | 65 | 90 | 10.0 | 12.0 | 0.00 | 0.00 | 0.00 | 86 | 1017.6 |
| 20260901215002 | 65 | 86 | 10.0 | 12.0 | 0.00 | 0.00 | 0.00 | 86 | 1017.5 |
| 20260901214003 | 65 | 80 | 10.0 | 13.0 | 0.00 | 0.00 | 0.00 | 85 | 1017.5 |
| 20260901213003 | 66 | 81 | 11.0 | 12.0 | 0.00 | 0.00 | 0.00 | 85 | 1017.5 |
| 20260901212024 | 66 | 83 | 11.0 | 12.0 | 0.00 | 0.00 | 0.00 | 85 | 1017.6 |
| 20260901211003 | 66 | 87 | 10.0 | 12.0 | 0.00 | 0.00 | 0.00 | 85 | 1017.5 |
| 20260901210002 | 66 | 76 | 11.0 | 14.0 | 0.00 | 0.00 | 0.00 | 84 | 1017.3 |
| 20260901205003 | 66 | 89 | 12.0 | 15.0 | 0.00 | 0.00 | 0.00 | 84 | 1017.1 |
| 20260901204024 | 67 | 85 | 12.0 | 14.0 | 0.00 | 0.00 | 0.00 | 83 | 1017.1 |
| 20260901203024 | 67 | 83 | 12.0 | 15.0 | 0.00 | 0.00 | 0.00 | 83 | 1017.1 |
| 20260901202003 | 66 | 79 | 14.0 | 17.0 | 0.00 | 0.00 | 0.00 | 83 | 1017.0 |
| 20260901201002 | 66 | 77 | 14.0 | 16.0 | 0.00 | 0.00 | 0.00 | 83 | 1017.1 |
| 20260901200003 | 67 | 82 | 13.0 | 15.0 | 0.00 | 0.00 | 0.00 | 83 | 1017.1 |
| 20260901195003 | 67 | 83 | 12.0 | 14.0 | 0.00 | 0.00 | 0.00 | 84 | 1017.2 |
| 20260901194003 | 66 | 81 | 13.0 | 15.0 | 0.00 | 0.00 | 0.00 | 84 | 1017.3 |
| 20260901193003 | 66 | 84 | 13.0 | 14.0 | 0.00 | 0.00 | 0.00 | 84 | 1017.3 |
| 20260901192024 | 67 | 79 | 12.0 | 14.0 | 0.00 | 0.00 | 0.00 | 82 | 1017.4 |
| 20260901191003 | 67 | 82 | 13.0 | 15.0 | 0.00 | 0.00 | 0.00 | 83 | 1017.2 |
| 20260901190003 | 67 | 75 | 13.0 | 15.0 | 0.00 | 0.00 | 0.00 | 83 | 1017.3 |
| 20260901185002 | 67 | 78 | 12.0 | 15.0 | 0.00 | 0.00 | 0.00 | 82 | 1017.2 |
| 20260901184003 | 68 | 87 | 12.0 | 14.0 | 0.00 | 0.00 | 0.00 | 82 | 1017.1 |
| 20260901183003 | 67 | 81 | 12.0 | 15.0 | 0.00 | 0.00 | 0.00 | 83 | 1017.2 |
| 20260901182024 | 67 | 76 | 13.0 | 15.0 | 0.00 | 0.00 | 0.00 | 83 | 1017.1 |
| 20260901181003 | 66 | 79 | 12.0 | 14.0 | 0.00 | 0.00 | 0.00 | 83 | 1017.2 |
| 20260901180002 | 66 | 77 | 12.0 | 14.0 | 0.00 | 0.00 | 0.00 | 83 | 1017.2 |
| 20260901175003 | 66 | 67 | 12.0 | 14.0 | 0.00 | 0.00 | 0.00 | 82 | 1017.1 |
| 20260901174024 | 66 | 69 | 10.0 | 14.0 | 0.00 | 0.00 | 0.00 | 82 | 1017.1 |
| 20260901173002 | 65 | 56 | 9.0 | 12.0 | 0.00 | 0.00 | 0.00 | 81 | 1017.1 |
| 20260901172003 | 66 | 63 | 10.0 | 13.0 | 0.00 | 0.00 | 0.00 | 81 | 1017.0 |
| 20260901171002 | 66 | 60 | 11.0 | 14.0 | 0.00 | 0.00 | 0.00 | 80 | 1017.1 |
| 20260901170024 | 65 | 55 | 11.0 | 14.0 | 0.00 | 0.00 | 0.00 | 80 | 1017.1 |
| 20260901164003 | 65 | 48 | 12.0 | 15.0 | 0.00 | 0.00 | 0.00 | 80 | 1017.1 |
| 20260901163003 | 65 | 53 | 12.0 | 14.0 | 0.00 | 0.00 | 0.00 | 80 | 1017.2 |
| 20260901162024 | 65 | 55 | 10.0 | 13.0 | 0.00 | 0.00 | 0.00 | 82 | 1016.9 |
| 20260901161024 | 64 | 46 | 12.0 | 15.0 | 0.00 | 0.00 | 0.00 | 82 | 1016.7 |
| 20260901160045 | 64 | 45 | 13.0 | 16.0 | 0.00 | 0.00 | 0.00 | 83 | 1016.7 |
| 20260901155024 | 64 | 56 | 11.0 | 15.0 | 0.00 | 0.00 | 0.00 | 83 | 1016.7 |
| 20260901154003 | 64 | 51 | 11.0 | 14.0 | 0.00 | 0.00 | 0.00 | 84 | 1016.9 |
| 20260901153023 | 64 | 50 | 11.0 | 14.0 | 0.00 | 0.00 | 0.00 | 84 | 1016.9 |
| 20260901152003 | 63 | 53 | 11.0 | 14.0 | 0.00 | 0.00 | 0.00 | 85 | 1017.0 |
| 20260901151024 | 63 | 42 | 11.0 | 14.0 | 0.00 | 0.00 | 0.00 | 85 | 1017.0 |
| 20260901150003 | 64 | 47 | 10.0 | 12.0 | 0.00 | 0.00 | 0.00 | 86 | 1016.9 |
| 20260901145003 | 64 | 46 | 9.0 | 12.0 | 0.00 | 0.00 | 0.00 | 85 | 1017.0 |
| 20260901144003 | 64 | 39 | 8.0 | 11.0 | 0.00 | 0.00 | 0.00 | 86 | 1016.9 |
| 20260901143045 | 63 | 37 | 6.0 | 11.0 | 0.00 | 0.00 | 0.00 | 87 | 1017.0 |
| 20260901142003 | 63 | 40 | 8.0 | 11.0 | 0.00 | 0.00 | 0.00 | 87 | 1017.1 |
| 20260901141003 | 62 | 29 | 6.0 | 10.0 | 0.00 | 0.00 | 0.00 | 88 | 1017.1 |
| 20260901140003 | 62 | 44 | 8.0 | 11.0 | 0.00 | 0.00 | 0.00 | 89 | 1017.0 |
| 20260901135002 | 62 | 32 | 8.0 | 11.0 | 0.00 | 0.00 | 0.00 | 89 | 1017.2 |
| 20260901134003 | 61 | 33 | 9.0 | 11.0 | 0.00 | 0.00 | 0.00 | 90 | 1017.1 |
| 20260901133002 | 61 | 29 | 7.0 | 11.0 | 0.00 | 0.00 | 0.00 | 90 | 1017.0 |
| 20260901132024 | 61 | 30 | 8.0 | 11.0 | 0.00 | 0.00 | 0.00 | 90 | 1017.1 |
| 20260901131003 | 60 | 35 | 7.0 | 10.0 | 0.00 | 0.00 | 0.00 | 91 | 1017.0 |
| 20260901130003 | 60 | 32 | 7.0 | 10.0 | 0.00 | 0.00 | 0.00 | 91 | 1017.0 |
| 20260901125003 | 60 | 28 | 7.0 | 10.0 | 0.00 | 0.00 | 0.00 | 91 | 1017.0 |
| 20260901124003 | 60 | 29 | 6.0 | 9.0 | 0.00 | 0.00 | 0.00 | 92 | 1016.9 |
| 20260901123003 | 59 | 20 | 7.0 | 10.0 | 0.00 | 0.00 | 0.00 | 92 | 1017.0 |
| 20260901122003 | 59 | 26 | 6.0 | 12.0 | 0.00 | 0.00 | 0.00 | 92 | 1016.8 |
| 20260901121002 | 59 | 25 | 7.0 | 10.0 | 0.00 | 0.00 | 0.00 | 92 | 1016.8 |
| 20260901120003 | 59 | 21 | 6.0 | 10.0 | 0.00 | 0.00 | 0.00 | 92 | 1016.8 |
| 20260901115003 | 59 | 31 | 5.0 | 10.0 | 0.00 | 0.00 | 0.00 | 92 | 1016.9 |
| 20260901114002 | 58 | 21 | 5.0 | 10.0 | 0.00 | 0.00 | 0.00 | 92 | 1016.8 |
| 20260901113003 | 58 | 13 | 6.0 | 10.0 | 0.00 | 0.00 | 0.00 | 93 | 1016.6 |
| 20260901112002 | 58 | 19 | 5.0 | 9.0 | 0.00 | 0.00 | 0.00 | 93 | 1016.5 |
| 20260901111003 | 57 | 16 | 5.0 | 9.0 | 0.00 | 0.00 | 0.00 | 93 | 1016.5 |
| 20260901110004 | 57 | 15 | 3.0 | 9.0 | 0.00 | 0.00 | 0.00 | 93 | 1016.6 |
| 20260901105004 | 57 | 13 | 4.0 | 8.0 | 0.00 | 0.00 | 0.00 | 93 | 1016.4 |
| 20260901104024 | 57 | 12 | 4.0 | 6.0 | 0.00 | 0.00 | 0.00 | 93 | 1016.4 |
| 20260901103003 | 57 | 18 | 3.0 | 4.0 | 0.00 | 0.00 | 0.00 | 93 | 1016.3 |
| 20260901102003 | 57 | 11 | 1.0 | 3.0 | 0.00 | 0.00 | 0.00 | 93 | 1016.3 |
| 20260901101003 | 57 | 10 | 2.0 | 6.0 | 0.00 | 0.00 | 0.00 | 93 | 1016.3 |
| 20260901100003 | 57 | 19 | 5.0 | 9.0 | 0.00 | 0.00 | 0.00 | 93 | 1016.2 |
| 20260901095003 | 56 | 26 | 5.0 | 6.0 | 0.00 | 0.00 | 0.00 | 92 | 1015.7 |
| 20260901094002 | 56 | 13 | 4.0 | 8.0 | 0.00 | 0.00 | 0.00 | 92 | 1015.6 |
| 20260901093024 | 56 | 17 | 5.0 | 7.0 | 0.00 | 0.00 | 0.00 | 92 | 1016.0 |
| 20260901092003 | 56 | 22 | 5.0 | 8.0 | 0.00 | 0.00 | 0.00 | 92 | 1016.1 |
| 20260901091023 | 56 | 17 | 4.0 | 7.0 | 0.00 | 0.00 | 0.00 | 92 | 1016.2 |
| 20260901090003 | 56 | 19 | 6.0 | 8.0 | 0.00 | 0.00 | 0.00 | 92 | 1016.2 |
| 20260901085003 | 56 | 9 | 4.0 | 6.0 | 0.00 | 0.00 | 0.00 | 92 | 1016.2 |
| 20260901084003 | 56 | 26 | 4.0 | 7.0 | 0.00 | 0.00 | 0.00 | 92 | 1016.2 |
| 20260901083024 | 56 | 28 | 3.0 | 4.0 | 0.00 | 0.00 | 0.00 | 92 | 1016.1 |
| 20260901082002 | 56 | 14 | 3.0 | 4.0 | 0.00 | 0.00 | 0.00 | 91 | 1016.2 |
| 20260901081003 | 57 | 16 | 3.0 | 5.0 | 0.00 | 0.00 | 0.00 | 92 | 1016.3 |
| 20260901080002 | 57 | 21 | 3.0 | 6.0 | 0.00 | 0.00 | 0.00 | 92 | 1016.4 |
| 20260901075003 | 57 | 19 | 4.0 | 6.0 | 0.00 | 0.00 | 0.00 | 92 | 1016.3 |
| 20260901074002 | 57 | 14 | 6.0 | 7.0 | 0.00 | 0.00 | 0.00 | 92 | 1016.4 |
| 20260901073003 | 57 | 14 | 4.0 | 6.0 | 0.00 | 0.00 | 0.00 | 92 | 1016.3 |
| 20260901072003 | 57 | 17 | 5.0 | 6.0 | 0.00 | 0.00 | 0.00 | 92 | 1016.5 |
| 20260901071003 | 57 | 19 | 4.0 | 5.0 | 0.00 | 0.00 | 0.00 | 92 | 1016.4 |
| 20260901070024 | 57 | 36 | 3.0 | 4.0 | 0.00 | 0.00 | 0.00 | 91 | 1016.4 |
| 20260901065002 | 57 | 37 | 2.0 | 3.0 | 0.00 | 0.00 | 0.00 | 91 | 1016.4 |
| 20260901064003 | 57 | 38 | 2.0 | 3.0 | 0.00 | 0.00 | 0.00 | 91 | 1016.6 |
| 20260901063003 | 57 | 20 | 3.0 | 4.0 | 0.00 | 0.00 | 0.00 | 91 | 1016.6 |
| 20260901062002 | 58 | 289 | 0.0 | 2.0 | 0.00 | 0.00 | 0.00 | 90 | 1016.6 |
| 20260901061003 | 58 | 289 | 0.0 | 3.0 | 0.00 | 0.00 | 0.00 | 90 | 1016.8 |
| 20260901060003 | 59 | 294 | 2.0 | 6.0 | 0.00 | 0.00 | 0.00 | 91 | 1016.8 |
| 20260901055003 | 59 | 288 | 4.0 | 8.0 | 0.00 | 0.00 | 0.00 | 91 | 1016.6 |
| 20260901054003 | 59 | 266 | 4.0 | 6.0 | 0.00 | 0.00 | 0.00 | 91 | 1016.6 |